Location: Pittman
(37.9557°N, 80.9209°W)
Time: 00:12:18
(UTC+00:00)

ARIANE 6 FM1 Upper Stage - Visible Passes

Search period start: 17 April 2026 00:00
Search period end: 27 April 2026 00:00
Orbit: 525 x 604 km, 62.0° (Epoch: 16 April)

Date Brightness Start Highest point End Pass type
(mag) Time Alt. Az. Time Alt. Az. Time Alt. Az.
17 Apr 6.0 00:42:15 10° NW 00:43:00 10° NW 00:43:45 10° NNW visible
25 Apr 5.8 04:02:39 10° N 04:02:45 10° N 04:02:45 10° N visible
26 Apr 5.7 04:01:50 10° NNW 04:02:13 12° N 04:02:13 12° N visible
